This is the latest recevied weather packets stored in our database for station/object KC4GS-13. If no packets are shown the sender has not sent any weather packets the latest 10 day(s).
| Time | Temp. | Humidity | Pressure | Rain* | Wind** | Luminosity | Snow |
|---|---|---|---|---|---|---|---|
| 1778085654 | 25° C | 66% | 1017.3 hPa | 0 mm | - | 293 W/m² | - |
| 1778085350 | 25° C | 66% | 1017.2 hPa | 0 mm | - | 292 W/m² | - |
| 1778085045 | 25° C | 67% | 1017.3 hPa | 0 mm | - | 308 W/m² | - |
| 1778084742 | 25° C | 67% | 1017.4 hPa | 0 mm | - | 104 W/m² | - |
| 1778084433 | 25° C | 66% | 1017.3 hPa | 0 mm | - | 97 W/m² | - |
| 1778084131 | 25.56° C | 66% | 1017.3 hPa | 0 mm | - | 147 W/m² | - |
| 1778083822 | 25.56° C | 67% | 1017.6 hPa | 0 mm | - | 258 W/m² | - |
| 1778083520 | 25° C | 67% | 1017.6 hPa | 0 mm | - | 331 W/m² | - |
| 1778083217 | 25° C | 66% | 1017.6 hPa | 0 mm | - | 242 W/m² | - |
| 1778082915 | 25° C | 66% | 1017.6 hPa | 0 mm | - | 368 W/m² | - |
| 1778081806 | 23.89° C | 72% | 1017.6 hPa | 0 mm | - | 210 W/m² | - |
| 1778081504 | 23.89° C | 73% | 1017.7 hPa | 0 mm | - | 187 W/m² | - |
| 1778081200 | 23.89° C | 72% | 1017.6 hPa | 0 mm | - | 126 W/m² | - |
| 1778080898 | 23.89° C | 73% | 1017.8 hPa | 0 mm | - | 114 W/m² | - |
| 1778080597 | 23.89° C | 73% | 1017.4 hPa | 0 mm | - | 182 W/m² | - |
| 1778080293 | 23.89° C | 73% | 1017.5 hPa | 0 mm | - | 246 W/m² | - |
| 1778079990 | 23.89° C | 73% | 1017.3 hPa | 0 mm | - | 252 W/m² | - |
| 1778079687 | 23.33° C | 74% | 1017.2 hPa | 0 mm | - | 230 W/m² | - |
| 1778079384 | 23.33° C | 75% | 1017 hPa | 0 mm | - | 252 W/m² | - |
| 1778079080 | 22.78° C | 75% | 1016.9 hPa | 0 mm | - | 271 W/m² | - |
| 1778078778 | 22.78° C | 75% | 1016.8 hPa | 0 mm | - | 204 W/m² | - |
| 1778078474 | 22.78° C | 76% | 1017 hPa | 0 mm | - | 279 W/m² | - |
| 1778078172 | 22.78° C | 76% | 1016.9 hPa | 0 mm | - | 244 W/m² | - |
| 1778077870 | 22.78° C | 77% | 1016.9 hPa | 0 mm | - | 215 W/m² | - |
| 1778077568 | 22.22° C | 77% | 1017 hPa | 0 mm | - | 216 W/m² | - |
* Rain latest hour (hover to see other rain measurements)
** Current wind speed in m/s (hover to see current wind gust speed)